| time (UTC) | temp F | wind direction | speed knots | gust knots | rain 1hr in | rain 24hr in | rain mn in | humidity % | barometer mb |
| 20260902233517 | 85 | 68 | 0.9 | 1.7 | 0.00 | 1.09 | 0.86 | 70 | 1009.5 |
| 20260902232517 | 86 | 68 | 1.7 | 3.5 | 0.00 | 1.09 | 0.86 | 69 | 1009.5 |
| 20260902231537 | 86 | 90 | 1.7 | 3.5 | 0.00 | 1.09 | 0.86 | 67 | 1009.7 |
| 20260902230517 | 87 | 68 | 2.6 | 7.8 | 0.00 | 1.09 | 0.86 | 68 | 1009.7 |
| 20260902225517 | 87 | 90 | 3.5 | 6.1 | 0.00 | 1.09 | 0.86 | 67 | 1009.7 |
| 20260902224517 | 87 | 68 | 2.6 | 7.8 | 0.00 | 1.09 | 0.86 | 66 | 1009.6 |
| 20260902223517 | 88 | 90 | 3.5 | 7.8 | 0.00 | 1.09 | 0.86 | 66 | 1009.7 |
| 20260902222517 | 88 | 90 | 1.7 | 4.3 | 0.00 | 1.09 | 0.86 | 65 | 1009.8 |
| 20260902221517 | 88 | 68 | 1.7 | 6.1 | 0.00 | 1.09 | 0.86 | 64 | 1009.8 |
| 20260902220518 | 88 | 90 | 1.7 | 5.2 | 0.00 | 1.09 | 0.86 | 64 | 1009.8 |
| 20260902215517 | 89 | 90 | 2.6 | 7.0 | 0.00 | 1.09 | 0.86 | 63 | 1009.9 |
| 20260902214517 | 89 | 90 | 2.6 | 7.8 | 0.00 | 1.09 | 0.86 | 61 | 1010.0 |
| 20260902213537 | 89 | 90 | 3.5 | 8.7 | 0.00 | 1.09 | 0.86 | 62 | 1010.0 |
| 20260902212517 | 89 | 90 | 3.5 | 8.7 | 0.00 | 1.09 | 0.86 | 61 | 1010.0 |
| 20260902211517 | 90 | 90 | 5.2 | 10.4 | 0.00 | 1.09 | 0.86 | 60 | 1010.1 |
| 20260902210517 | 91 | 90 | 5.2 | 13.0 | 0.00 | 1.09 | 0.86 | 59 | 1010.3 |
| 20260902205517 | 91 | 90 | 5.2 | 9.6 | 0.00 | 1.09 | 0.86 | 59 | 1010.4 |
| 20260902204517 | 90 | 90 | 3.5 | 7.0 | 0.00 | 1.09 | 0.86 | 61 | 1010.4 |
| 20260902203517 | 89 | 90 | 3.5 | 7.8 | 0.00 | 1.09 | 0.86 | 59 | 1010.4 |
| 20260902202517 | 89 | 90 | 2.6 | 7.0 | 0.00 | 1.09 | 0.86 | 60 | 1010.4 |
| 20260902201517 | 89 | 68 | 1.7 | 4.3 | 0.00 | 1.09 | 0.86 | 63 | 1010.4 |
| 20260902200517 | 90 | 90 | 1.7 | 3.5 | 0.00 | 1.09 | 0.86 | 67 | 1010.6 |
| 20260902195517 | 89 | 90 | 3.5 | 7.0 | 0.00 | 1.09 | 0.86 | 66 | 1010.8 |
| 20260902194517 | 89 | 90 | 2.6 | 7.0 | 0.00 | 1.09 | 0.86 | 69 | 1010.9 |
| 20260902193517 | 88 | 90 | 2.6 | 7.0 | 0.00 | 1.09 | 0.86 | 68 | 1010.9 |
| 20260902192517 | 87 | 68 | 1.7 | 4.3 | 0.00 | 1.09 | 0.86 | 71 | 1011.0 |
| 20260902191517 | 88 | 90 | 4.3 | 8.7 | 0.00 | 1.09 | 0.86 | 70 | 1011.1 |
| 20260902190517 | 88 | 90 | 4.3 | 8.7 | 0.00 | 1.09 | 0.86 | 68 | 1011.2 |
| 20260902185517 | 87 | 90 | 2.6 | 6.1 | 0.00 | 1.09 | 0.86 | 69 | 1011.3 |
| 20260902184517 | 85 | 90 | 2.6 | 6.1 | 0.00 | 1.09 | 0.86 | 71 | 1011.3 |
| 20260902183537 | 84 | 45 | 0.9 | 2.6 | 0.00 | 1.09 | 0.86 | 74 | 1011.4 |
| 20260902182517 | 84 | 90 | 2.6 | 6.1 | 0.00 | 1.09 | 0.86 | 72 | 1011.5 |
| 20260902181537 | 85 | 90 | 0.9 | 2.6 | 0.00 | 1.09 | 0.86 | 72 | 1011.6 |
| 20260902180537 | 84 | 90 | 1.7 | 5.2 | 0.00 | 1.09 | 0.86 | 77 | 1011.6 |
| 20260902175517 | 82 | 68 | 0.9 | 2.6 | 0.00 | 1.09 | 0.86 | 75 | 1011.8 |
| 20260902174517 | 82 | 0.0 | 1.7 | 0.00 | 1.09 | 0.86 | 75 | 1011.9 | |
| 20260902173517 | 82 | 68 | 0.9 | 3.5 | 0.01 | 1.09 | 0.86 | 76 | 1012.1 |
| 20260902172517 | 82 | 68 | 1.7 | 2.6 | 0.01 | 1.09 | 0.86 | 79 | 1012.2 |
| 20260902171557 | 81 | 45 | 0.9 | 2.6 | 0.01 | 1.09 | 0.86 | 77 | 1012.1 |
| 20260902170517 | 81 | 68 | 0.9 | 4.3 | 0.01 | 1.09 | 0.86 | 78 | 1012.3 |
| 20260902165517 | 80 | 45 | 0.9 | 3.5 | 0.01 | 1.09 | 0.86 | 77 | 1012.2 |
| 20260902164517 | 80 | 158 | 0.9 | 2.6 | 0.01 | 1.09 | 0.86 | 77 | 1012.2 |
| 20260902163517 | 79 | 158 | 1.7 | 3.5 | 0.00 | 1.08 | 0.85 | 78 | 1012.4 |
| 20260902162516 | 78 | 0 | 0.9 | 3.5 | 0.00 | 1.08 | 0.85 | 82 | 1012.5 |
| 20260902161517 | 77 | 0 | 1.7 | 3.5 | 0.00 | 1.08 | 0.85 | 80 | 1012.7 |
| 20260902160517 | 76 | 0.0 | 0.0 | 0.00 | 1.08 | 0.85 | 82 | 1012.6 | |
| 20260902155537 | 77 | 0 | 0.9 | 3.5 | 0.01 | 1.08 | 0.85 | 82 | 1012.7 |
| 20260902154537 | 76 | 135 | 1.7 | 3.5 | 0.01 | 1.08 | 0.85 | 84 | 1012.5 |
| 20260902153517 | 76 | 135 | 0.9 | 1.7 | 0.01 | 1.08 | 0.85 | 84 | 1012.8 |
| 20260902152517 | 75 | 0 | 0.9 | 3.5 | 0.01 | 1.08 | 0.85 | 85 | 1012.7 |
| 20260902151517 | 74 | 90 | 1.7 | 3.5 | 0.01 | 1.08 | 0.85 | 87 | 1012.5 |
| 20260902150517 | 73 | 0.0 | 0.0 | 0.01 | 1.08 | 0.85 | 90 | 1012.1 | |
| 20260902145517 | 73 | 68 | 0.9 | 4.3 | 0.00 | 1.07 | 0.84 | 90 | 1011.7 |
| 20260902144516 | 72 | 45 | 0.9 | 2.6 | 0.00 | 1.07 | 0.84 | 91 | 1011.5 |
| 20260902143517 | 71 | 0.0 | 0.0 | 0.00 | 1.07 | 0.84 | 92 | 1011.5 | |
| 20260902142517 | 71 | 0.0 | 0.0 | 0.01 | 1.07 | 0.84 | 92 | 1011.6 | |
| 20260902141537 | 70 | 0.0 | 0.0 | 0.01 | 1.07 | 0.84 | 93 | 1011.5 | |
| 20260902140516 | 70 | 0.0 | 0.0 | 0.01 | 1.07 | 0.84 | 94 | 1011.5 | |
| 20260902135517 | 69 | 68 | 0.9 | 2.6 | 0.01 | 1.07 | 0.84 | 94 | 1011.4 |
| 20260902134517 | 69 | 68 | 0.9 | 2.6 | 0.01 | 1.07 | 0.84 | 95 | 1011.4 |
| 20260902133537 | 69 | 68 | 0.9 | 2.6 | 0.01 | 1.07 | 0.84 | 95 | 1011.7 |
| 20260902132516 | 68 | 45 | 0.9 | 2.6 | 0.00 | 1.06 | 0.83 | 96 | 1011.5 |
| 20260902131536 | 68 | 45 | 0.9 | 2.6 | 0.00 | 1.06 | 0.83 | 96 | 1011.5 |
| 20260902130516 | 68 | 0.0 | 0.0 | 0.01 | 1.06 | 0.83 | 97 | 1011.6 | |
| 20260902125517 | 67 | 0.0 | 1.7 | 0.01 | 1.06 | 0.83 | 97 | 1011.6 | |
| 20260902124557 | 67 | 0.0 | 0.0 | 0.01 | 1.06 | 0.83 | 97 | 1011.6 | |
| 20260902123516 | 67 | 0.0 | 0.0 | 0.01 | 1.06 | 0.83 | 97 | 1011.7 | |
| 20260902122517 | 67 | 0.0 | 0.0 | 0.01 | 1.06 | 0.83 | 97 | 1011.7 | |
| 20260902121517 | 66 | 0.0 | 0.0 | 0.02 | 1.06 | 0.83 | 97 | 1011.3 | |
| 20260902120517 | 67 | 0.0 | 0.0 | 0.01 | 1.05 | 0.82 | 97 | 1011.5 | |
| 20260902115517 | 67 | 0.0 | 0.0 | 0.01 | 1.05 | 0.82 | 97 | 1011.6 | |
| 20260902114517 | 67 | 0.0 | 0.0 | 0.02 | 1.05 | 0.82 | 97 | 1011.5 | |
| 20260902113537 | 67 | 0.0 | 0.0 | 0.02 | 1.05 | 0.82 | 97 | 1011.4 | |
| 20260902112517 | 67 | 0.0 | 0.0 | 0.02 | 1.05 | 0.82 | 97 | 1011.2 | |
| 20260902111536 | 67 | 68 | 0.9 | 2.6 | 0.02 | 1.04 | 0.81 | 96 | 1011.3 |
| 20260902110516 | 67 | 68 | 0.9 | 2.6 | 0.02 | 1.04 | 0.81 | 96 | 1011.4 |
| 20260902105517 | 67 | 68 | 0.9 | 3.5 | 0.03 | 1.04 | 0.81 | 96 | 1011.5 |
| 20260902104537 | 67 | 68 | 0.9 | 3.5 | 0.02 | 1.03 | 0.80 | 96 | 1011.6 |
| 20260902103537 | 67 | 0.0 | 0.9 | 0.03 | 1.03 | 0.80 | 96 | 1011.8 | |
| 20260902102517 | 67 | 68 | 0.9 | 1.7 | 0.04 | 1.03 | 0.80 | 96 | 1012.0 |
| 20260902101516 | 67 | 68 | 0.9 | 1.7 | 0.03 | 1.02 | 0.79 | 96 | 1012.4 |
| 20260902100516 | 67 | 68 | 0.9 | 1.7 | 0.04 | 1.02 | 0.79 | 96 | 1012.5 |
| 20260902095516 | 67 | 68 | 0.9 | 2.6 | 0.04 | 1.01 | 0.78 | 96 | 1012.4 |
| 20260902094516 | 67 | 68 | 0.9 | 1.7 | 0.05 | 1.01 | 0.78 | 96 | 1012.3 |
| 20260902093516 | 67 | 68 | 0.9 | 1.7 | 0.06 | 1.00 | 0.77 | 96 | 1012.4 |
| 20260902092517 | 67 | 90 | 1.7 | 4.3 | 0.06 | 0.99 | 0.76 | 96 | 1012.2 |
| 20260902091516 | 67 | 0.0 | 1.7 | 0.07 | 0.99 | 0.76 | 96 | 1011.9 | |
| 20260902090516 | 67 | 68 | 0.9 | 2.6 | 0.08 | 0.98 | 0.75 | 96 | 1011.8 |
| 20260902085516 | 67 | 68 | 1.7 | 3.5 | 0.09 | 0.97 | 0.74 | 96 | 1012.2 |
| 20260902084516 | 67 | 90 | 1.7 | 4.3 | 0.10 | 0.96 | 0.73 | 96 | 1012.4 |
| 20260902083516 | 67 | 90 | 2.6 | 6.1 | 0.10 | 0.94 | 0.71 | 96 | 1012.7 |
| 20260902082536 | 67 | 90 | 4.3 | 7.0 | 0.11 | 0.93 | 0.70 | 96 | 1013.1 |
| 20260902081516 | 67 | 0.0 | 0.0 | 0.12 | 0.92 | 0.69 | 96 | 1012.9 | |
| 20260902080516 | 67 | 0.0 | 0.0 | 0.13 | 0.90 | 0.67 | 96 | 1012.0 | |
| 20260902075516 | 67 | 0.0 | 0.0 | 0.14 | 0.88 | 0.65 | 96 | 1011.8 | |
| 20260902074516 | 67 | 90 | 0.9 | 1.7 | 0.16 | 0.86 | 0.63 | 96 | 1011.7 |
| 20260902073516 | 67 | 90 | 1.7 | 4.3 | 0.17 | 0.84 | 0.61 | 96 | 1012.1 |
| 20260902072516 | 67 | 0.0 | 2.6 | 0.19 | 0.82 | 0.59 | 95 | 1012.0 | |
| 20260902071516 | 68 | 90 | 0.9 | 2.6 | 0.21 | 0.80 | 0.57 | 95 | 1012.0 |
| 20260902070536 | 68 | 135 | 1.7 | 6.1 | 0.22 | 0.77 | 0.54 | 95 | 1012.2 |
| 20260902065556 | 67 | 0.0 | 0.0 | 0.23 | 0.74 | 0.51 | 95 | 1010.6 | |
| 20260902064516 | 68 | 45 | 2.6 | 6.1 | 0.23 | 0.70 | 0.47 | 95 | 1009.7 |
| 20260902063516 | 68 | 23 | 1.7 | 7.0 | 0.24 | 0.67 | 0.44 | 95 | 1010.6 |
| 20260902062516 | 68 | 23 | 1.7 | 4.3 | 0.24 | 0.63 | 0.40 | 95 | 1010.7 |
| 20260902061516 | 68 | 45 | 2.6 | 4.3 | 0.26 | 0.59 | 0.36 | 95 | 1010.9 |
| 20260902060517 | 68 | 45 | 2.6 | 7.0 | 0.29 | 0.55 | 0.32 | 95 | 1010.3 |
| 20260902055516 | 68 | 90 | 0.9 | 2.6 | 0.30 | 0.51 | 0.28 | 95 | 1011.4 |
| 20260902054516 | 68 | 90 | 0.9 | 3.5 | 0.29 | 0.47 | 0.24 | 95 | 1012.1 |
| 20260902053516 | 68 | 45 | 1.7 | 3.5 | 0.30 | 0.43 | 0.20 | 95 | 1012.5 |
| 20260902052516 | 68 | 45 | 0.9 | 4.3 | 0.37 | 0.39 | 0.16 | 94 | 1013.5 |
| 20260902051516 | 68 | 135 | 1.7 | 4.3 | 0.33 | 0.33 | 0.10 | 94 | 1014.7 |
| 20260902050516 | 71 | 113 | 8.7 | 19.1 | 0.26 | 0.26 | 0.03 | 92 | 1017.9 |
| 20260902045516 | 72 | 90 | 1.7 | 3.5 | 0.21 | 0.21 | 0.21 | 94 | 1013.4 |
| 20260902044516 | 72 | 45 | 0.9 | 2.6 | 0.18 | 0.18 | 0.18 | 94 | 1013.4 |
| 20260902043537 | 73 | 90 | 0.9 | 5.2 | 0.13 | 0.13 | 0.13 | 92 | 1012.8 |
| 20260902042516 | 75 | 113 | 1.7 | 3.5 | 0.02 | 0.02 | 0.02 | 86 | 1013.6 |
| 20260902041536 | 76 | 0.0 | 0.9 | 0.00 | 0.00 | 0.00 | 83 | 1012.5 | |
| 20260902040516 | 76 | 23 | 0.9 | 2.6 | 0.00 | 0.00 | 0.00 | 82 | 1012.8 |
| 20260902035517 | 76 | 23 | 1.7 | 3.5 | 0.00 | 0.00 | 0.00 | 82 | 1012.6 |
| 20260902034516 | 76 | 23 | 1.7 | 4.3 | 0.00 | 0.00 | 0.00 | 83 | 1012.1 |
| 20260902033516 | 75 | 45 | 1.7 | 3.5 | 0.00 | 0.00 | 0.00 | 84 | 1012.2 |
| 20260902032516 | 75 | 45 | 1.7 | 4.3 | 0.00 | 0.00 | 0.00 | 85 | 1012.2 |
| 20260902031536 | 75 | 23 | 1.7 | 2.6 | 0.00 | 0.00 | 0.00 | 85 | 1012.3 |
| 20260902030516 | 75 | 23 | 0.9 | 2.6 | 0.00 | 0.00 | 0.00 | 85 | 1012.7 |
| 20260902025516 | 75 | 0.0 | 1.7 | 0.00 | 0.00 | 0.00 | 86 | 1012.5 | |
| 20260902024516 | 76 | 23 | 0.9 | 2.6 | 0.00 | 0.00 | 0.00 | 85 | 1013.0 |
| 20260902023516 | 76 | 45 | 0.9 | 2.6 | 0.00 | 0.00 | 0.00 | 85 | 1012.8 |
| 20260902022516 | 76 | 45 | 0.9 | 1.7 | 0.00 | 0.00 | 0.00 | 85 | 1012.4 |
| 20260902021516 | 76 | 45 | 0.9 | 2.6 | 0.00 | 0.00 | 0.00 | 84 | 1012.4 |
| 20260902020516 | 76 | 0.0 | 0.0 | 0.00 | 0.00 | 0.00 | 84 | 1012.4 | |
| 20260902015617 | 76 | 45 | 0.9 | 2.6 | 0.00 | 0.00 | 0.00 | 84 | 1012.5 |
| 20260902014516 | 76 | 45 | 0.9 | 2.6 | 0.00 | 0.00 | 0.00 | 84 | 1012.2 |
| 20260902013516 | 77 | 0.0 | 2.6 | 0.00 | 0.00 | 0.00 | 84 | 1012.2 | |
| 20260902012516 | 77 | 0.0 | 0.0 | 0.00 | 0.00 | 0.00 | 83 | 1012.2 | |
| 20260902011516 | 77 | 0.0 | 0.0 | 0.00 | 0.00 | 0.00 | 83 | 1012.2 | |
| 20260902010516 | 78 | 45 | 1.7 | 2.6 | 0.00 | 0.00 | 0.00 | 83 | 1012.1 |
| 20260902005517 | 78 | 45 | 0.9 | 1.7 | 0.00 | 0.00 | 0.00 | 82 | 1012.1 |
| 20260902004536 | 79 | 23 | 0.9 | 2.6 | 0.00 | 0.00 | 0.00 | 82 | 1012.3 |
| 20260902003516 | 79 | 45 | 0.9 | 2.6 | 0.00 | 0.00 | 0.00 | 81 | 1012.3 |
| 20260902002516 | 80 | 23 | 0.9 | 2.6 | 0.00 | 0.00 | 0.00 | 80 | 1012.2 |
| 20260902001556 | 80 | 23 | 1.7 | 4.3 | 0.00 | 0.00 | 0.00 | 80 | 1012.1 |
| 20260902000516 | 80 | 23 | 0.9 | 2.6 | 0.00 | 0.00 | 0.00 | 81 | 1012.3 |
| 20260901235516 | 81 | 23 | 0.9 | 3.5 | 0.00 | 0.00 | 0.00 | 80 | 1012.4 |
| 20260901234516 | 81 | 23 | 1.7 | 4.3 | 0.00 | 0.00 | 0.00 | 79 | 1012.4 |